Theta_e
329 328 329 330 327 325 326 326 323 325 329 327 321 319 322 320 317 320 323 322 324 328 332 336 339 339 342 345 345 344 345 348 351 354 357 356 356 354 353 355 355 356 354 349 342 334 331 333 332 334 336 335 333 333 331 331 330 328 324 321 320 319 320
329 328 330 329 329 328 326 322 323 328 329 328 324 321 321 320 317 319 321 320 321 321 325 334 338 336 337 343 347 346 344 347 351 355 356 358 357 353 353 354 353 354 348 341 337 334 334 334 333 335 336 334 334 332 332 331 330 328 324 321 320 319 320
327 329 327 326 327 330 327 326 328 327 321 322 324 321 320 319 317 319 320 320 320 319 323 330 334 334 333 340 348 347 345 347 350 353 356 359 357 353 353 353 353 352 343 334 335 337 338 336 334 336 336 333 334 333 331 331 330 328 324 321 320 320 320
327 328 326 323 324 327 329 328 329 328 324 323 324 322 320 319 318 318 319 319 319 322 328 330 332 335 333 337 347 349 347 347 350 353 357 359 358 354 352 353 353 349 339 334 337 339 341 339 335 336 337 336 337 335 331 330 330 328 325 322 321 320 320
325 325 325 325 325 326 326 324 325 325 326 325 324 324 322 320 318 318 318 317 319 326 334 332 332 334 334 336 344 348 349 349 350 354 356 358 357 354 351 352 351 347 341 339 340 341 343 341 336 339 340 338 339 337 332 331 331 330 328 324 321 321 321
321 324 329 331 330 330 328 326 325 324 326 323 321 321 322 321 319 318 319 317 319 329 337 333 332 335 334 337 341 344 348 349 350 354 356 357 358 355 352 351 350 347 343 342 342 343 344 341 339 342 341 338 338 338 334 334 334 335 334 332 326 320 320
325 328 331 330 329 331 330 329 328 329 328 323 319 319 321 321 321 320 321 318 321 336 343 338 340 344 343 345 346 346 347 349 352 355 356 358 358 356 353 351 350 348 345 344 345 345 343 338 340 342 340 337 337 336 335 336 336 334 335 336 332 324 320
329 328 330 330 328 330 328 329 330 329 329 326 325 325 325 323 321 320 320 318 322 338 347 344 347 347 345 345 347 348 348 349 353 354 355 358 358 357 355 352 352 350 348 347 344 342 339 336 338 340 335 333 334 334 335 337 336 334 333 334 334 328 321
323 324 326 326 326 329 327 329 331 328 330 330 328 331 328 323 321 321 320 317 323 337 344 343 344 343 341 339 343 347 349 349 352 354 356 357 358 358 357 353 352 352 350 345 340 339 338 336 338 338 334 331 331 331 334 335 335 336 335 334 333 329 323
319 319 320 321 325 327 327 329 331 329 330 329 328 327 323 321 324 326 321 319 324 336 341 339 339 339 338 339 339 343 347 350 352 356 357 359 359 359 357 354 353 352 349 345 341 340 339 338 338 337 333 330 330 330 332 334 334 334 333 333 333 328 325
320 321 324 328 329 327 323 327 329 329 330 329 329 325 321 324 328 325 324 326 326 331 336 336 336 337 335 335 338 341 347 350 351 354 356 358 359 358 357 355 353 352 350 347 345 342 340 339 338 337 332 329 330 331 330 331 331 330 330 330 328 325 324
327 329 333 333 330 327 325 326 328 330 329 330 329 325 327 332 326 321 330 337 328 329 335 335 335 336 335 335 338 339 345 349 349 352 354 355 357 357 356 354 352 352 350 348 346 345 342 339 337 336 331 329 330 330 329 330 329 328 329 327 325 323 321
332 333 333 331 330 329 328 328 329 329 329 329 328 327 334 337 325 323 337 341 332 333 335 333 334 335 333 335 337 338 341 346 348 351 352 353 354 355 355 354 352 352 350 348 348 346 343 339 337 334 330 330 330 328 327 328 328 328 328 325 323 322 321
330 332 332 331 330 329 329 329 329 330 330 329 329 328 335 337 330 331 339 339 337 337 335 335 335 333 333 337 338 337 338 341 346 349 351 352 352 352 353 353 353 352 350 348 348 346 342 338 336 332 329 329 328 326 326 327 325 325 325 323 323 322 321
328 331 331 331 331 329 328 329 330 330 329 329 330 331 334 334 333 334 337 335 335 335 335 338 335 332 336 339 338 337 339 339 343 346 348 350 351 350 351 352 352 352 350 349 349 346 342 338 335 331 330 329 326 327 331 331 327 324 322 322 323 321 322
324 329 330 329 330 330 326 327 330 330 329 328 330 332 334 333 333 334 333 329 331 333 335 336 335 334 337 338 337 340 341 341 342 344 347 349 349 350 350 351 351 351 350 349 348 345 340 337 333 330 328 327 325 326 330 328 328 327 325 322 322 322 322
322 328 330 328 328 325 323 327 330 330 331 331 330 333 335 334 333 331 329 327 330 333 333 333 332 333 334 336 340 341 341 343 344 344 345 348 348 349 350 349 350 349 349 349 347 343 340 336 332 329 327 325 324 325 326 323 323 326 325 322 322 322 323
322 328 330 328 324 321 323 332 334 332 332 330 331 332 334 335 333 331 329 331 332 332 332 332 332 333 336 338 342 342 340 340 343 345 345 345 348 349 348 349 349 349 350 350 345 341 338 334 331 329 327 325 324 325 324 322 321 322 322 322 322 322 323
325 329 329 323 321 324 331 336 334 333 332 332 332 332 332 332 332 332 332 332 333 333 332 331 334 338 340 339 340 342 340 338 340 343 344 345 347 348 348 348 348 349 350 348 343 339 336 332 330 328 326 326 326 326 324 322 322 321 321 322 322 322 324
327 327 323 322 325 332 336 335 333 333 334 334 332 330 332 333 332 333 334 332 332 333 330 332 338 341 341 340 340 339 337 337 339 341 343 345 345 346 347 347 349 349 347 344 341 338 334 330 329 329 327 327 328 329 327 324 323 323 322 321 322 323 324
328 323 320 325 328 331 333 333 333 333 332 333 332 328 330 333 332 333 334 333 332 332 330 335 341 342 340 340 341 340 336 333 336 338 342 343 343 345 346 347 348 346 343 341 340 335 332 330 329 329 328 328 328 329 329 327 325 324 323 322 322 322 325
328 323 321 324 324 323 329 333 335 334 333 335 333 329 329 332 332 332 332 332 333 332 333 339 343 341 338 335 338 341 337 333 333 336 340 342 342 344 345 346 345 342 340 341 338 332 330 330 329 328 328 327 327 326 327 329 330 327 325 324 324 325 328
327 325 322 322 321 323 331 334 335 334 333 334 333 327 326 330 333 331 330 331 332 330 334 343 344 338 332 331 337 338 336 334 335 335 337 340 342 342 343 343 342 340 341 340 335 331 330 330 329 329 328 327 327 325 325 329 332 330 328 328 326 327 330
325 325 322 321 323 328 334 336 333 331 332 332 330 323 323 330 333 331 330 331 331 330 337 343 342 335 332 334 339 337 334 334 335 334 334 337 339 339 340 340 340 340 339 337 332 330 330 329 329 328 327 327 328 326 326 331 333 332 332 330 327 328 331
324 325 322 321 325 332 336 333 330 331 331 330 325 323 328 332 331 330 331 331 329 332 341 341 336 335 338 337 336 335 334 333 333 333 334 335 337 337 339 338 338 339 337 334 332 330 330 329 329 328 328 328 328 326 328 331 333 333 333 330 328 329 331
324 325 324 321 325 332 333 330 330 331 328 326 326 331 336 334 332 333 333 331 329 334 340 340 336 337 339 336 333 335 335 332 332 333 333 334 334 335 337 336 336 336 336 333 332 330 329 329 329 329 328 329 329 328 327 329 331 333 332 328 327 328 328
327 325 325 323 325 331 331 330 331 330 328 331 336 338 337 334 334 335 334 333 334 336 339 341 340 340 339 336 336 337 335 332 333 333 333 334 334 333 334 334 334 335 335 333 331 331 332 333 330 329 329 328 329 330 327 326 329 331 329 326 326 328 328
327 323 325 327 330 331 330 330 333 332 332 337 338 336 335 334 334 335 335 335 337 340 342 344 342 341 341 338 338 338 334 332 333 332 332 333 333 332 334 334 335 334 333 332 331 331 334 335 332 329 329 329 329 329 329 327 327 328 327 326 328 330 329
330 327 329 332 332 333 331 330 332 332 332 333 333 333 334 332 332 334 335 335 338 340 341 342 342 340 340 340 340 339 336 333 332 332 332 332 332 332 334 334 334 332 332 332 332 331 332 333 331 329 329 329 329 330 329 329 328 327 327 328 330 330 328
331 331 332 332 331 331 331 330 331 331 330 331 332 332 334 334 333 335 335 335 339 340 338 339 340 339 340 341 341 338 335 333 332 332 332 332 333 332 332 332 331 330 331 331 330 330 330 330 329 330 329 329 329 330 330 330 329 329 330 330 330 328 325
328 329 332 332 329 329 331 330 330 329 329 330 331 332 335 335 334 337 337 336 337 338 338 339 339 338 340 339 334 332 332 331 331 332 332 332 332 331 331 330 328 328 329 329 329 330 331 330 329 330 330 330 330 330 332 332 332 330 330 329 328 325 323
328 329 332 330 328 329 330 329 328 327 326 328 330 331 334 335 333 333 334 334 335 336 338 339 339 338 338 335 331 332 332 330 330 331 330 330 329 328 328 328 327 327 328 328 328 329 330 329 328 328 329 332 335 335 335 334 333 331 329 326 325 324 323
329 329 330 329 327 329 330 329 326 325 324 326 329 329 331 333 334 332 332 333 335 337 338 339 339 338 337 334 332 333 333 331 330 329 328 327 327 327 326 326 326 326 326 326 325 325 325 325 326 326 327 330 334 336 335 333 331 330 327 324 322 323 324
327 328 329 328 327 328 330 328 325 323 323 326 330 330 331 333 334 335 334 333 334 336 337 338 338 336 336 334 333 333 334 333 330 327 326 326 325 325 325 325 324 324 323 323 323 323 323 324 325 325 326 327 330 333 334 332 329 328 325 324 324 326 327
327 327 327 327 327 327 327 326 323 322 325 327 327 328 331 332 334 336 338 335 332 333 335 335 336 335 332 330 332 333 333 330 327 325 324 324 323 323 323 323 323 323 322 322 322 322 323 324 324 324 326 326 328 331 332 330 327 326 325 325 326 328 328
325 324 324 324 324 324 323 322 321 324 327 327 326 326 328 330 332 334 337 337 332 330 331 333 336 335 330 328 331 332 329 326 325 323 323 322 322 322 323 322 322 322 322 323 323 323 323 324 324 325 327 327 328 330 331 329 328 327 326 326 328 328 328
322 322 322 321 321 321 322 322 323 326 327 325 324 324 325 327 329 331 333 337 334 330 329 331 332 333 330 328 330 329 325 323 323 322 322 323 322 322 322 323 323 324 323 323 323 323 323 324 323 324 326 327 326 327 328 328 327 327 326 327 328 327 327
Wind_Speed
9 9 6 6 6 4 6 6 7 1 3 3 4 1 0 3 7 4 4 5 6 5 4 5 5 5 6 8 10 12 13 13 14 17 21 23 24 24 23 23 24 25 26 28 29 29 28 25 22 19 16 12 9 8 8 9 9 9 9 9 10 11 12
5 3 6 7 2 2 4 7 7 5 2 2 4 4 3 4 8 3 3 8 7 4 3 4 6 6 6 7 9 11 12 14 16 17 19 22 24 24 23 23 24 25 29 32 31 29 27 25 22 19 16 12 10 10 9 10 10 9 9 9 11 11 12
7 6 7 7 3 2 4 3 6 6 4 5 5 5 5 5 7 4 4 6 6 5 3 4 5 4 3 4 7 9 12 15 17 18 19 21 23 24 23 24 24 26 31 34 31 27 26 25 23 19 16 13 12 11 11 12 11 9 8 9 11 11 12
8 8 8 8 8 6 3 3 6 6 5 3 3 4 5 5 6 5 3 4 5 5 2 2 2 2 2 3 5 7 10 14 16 17 19 21 23 25 25 25 26 28 32 32 29 26 24 25 24 20 16 14 13 12 13 13 12 10 9 10 11 11 12
7 8 9 9 8 9 8 7 7 7 4 2 2 3 3 5 5 5 4 4 3 4 4 1 2 2 2 3 4 6 8 12 15 16 18 21 23 25 26 26 27 29 30 29 27 25 24 25 24 20 17 15 14 13 14 14 12 10 9 11 11 11 12
8 8 6 3 4 5 9 9 9 9 7 4 5 5 4 3 5 4 4 6 3 5 5 3 2 2 3 3 4 5 6 9 12 15 18 20 22 25 27 27 26 28 29 27 26 24 24 25 24 20 18 16 15 15 14 12 10 8 8 10 12 11 12
5 4 5 2 4 3 6 7 9 9 8 8 8 6 4 4 4 3 4 7 3 5 5 3 3 2 2 2 4 5 6 7 11 14 17 19 20 23 26 27 25 27 28 27 26 27 28 28 25 22 20 17 15 15 14 12 11 9 8 10 11 12 12
3 5 4 2 0 3 6 7 8 8 8 9 7 3 2 3 4 3 4 7 3 5 4 2 2 2 4 5 6 7 6 6 9 13 16 18 19 21 24 25 24 25 28 29 31 32 32 29 26 24 21 18 16 16 14 11 10 9 9 10 11 12 12
6 5 5 5 5 6 9 9 10 11 10 7 3 2 2 5 7 6 6 7 2 4 4 2 3 4 6 7 7 7 8 7 8 11 15 18 19 20 23 25 25 26 30 35 37 36 33 30 27 25 21 18 17 16 14 11 9 9 10 11 11 12 12
9 9 8 8 8 8 9 10 11 12 13 11 7 4 5 6 5 6 7 8 2 5 6 4 4 5 6 7 8 8 8 8 7 8 13 16 18 20 23 26 28 30 33 38 40 36 33 30 28 25 22 19 17 16 15 13 10 10 12 12 12 12 11
10 9 7 9 10 10 12 14 15 15 16 15 11 7 7 5 4 5 8 8 8 6 4 3 3 4 6 7 8 9 9 9 9 9 12 15 17 19 22 24 26 29 33 38 39 36 33 30 28 25 22 19 17 17 16 14 12 12 13 13 12 12 10
10 6 3 8 11 13 13 16 16 16 16 15 13 10 6 5 5 6 5 5 9 13 10 7 5 6 8 8 9 9 9 10 11 12 13 15 16 18 21 24 27 30 33 36 37 36 33 30 28 25 22 19 18 17 16 14 13 13 13 13 12 11 10
8 3 3 6 10 12 13 14 15 16 16 15 15 14 8 6 8 7 3 6 9 12 11 10 7 8 10 10 10 10 9 10 11 12 14 16 17 18 21 25 27 30 33 35 36 36 34 31 28 25 22 20 19 18 16 14 13 13 13 13 12 11 10
7 4 5 6 9 11 11 13 14 15 16 16 16 14 9 7 9 7 2 4 8 11 11 10 9 9 10 11 11 12 12 11 11 13 15 17 18 20 22 24 26 28 32 34 36 36 34 31 29 26 23 22 20 17 15 14 14 14 14 13 12 11 11
6 6 6 7 10 11 11 11 12 13 14 14 13 10 7 7 7 6 6 7 9 10 8 6 7 9 9 10 13 14 12 10 12 15 16 17 19 20 22 23 24 26 29 33 36 36 35 32 29 26 24 22 19 17 15 14 14 14 14 13 13 12 11
6 6 8 8 9 9 11 11 11 12 13 11 10 8 7 7 7 6 7 8 7 6 5 5 9 10 11 13 14 13 11 9 11 14 15 16 18 19 21 22 24 26 29 33 36 37 35 32 29 26 24 22 19 17 16 15 14 14 13 13 13 13 12
6 8 9 9 9 9 9 9 11 14 12 9 9 7 7 7 6 6 7 7 6 5 6 8 11 11 12 13 12 12 10 9 10 13 14 15 15 17 20 22 24 27 28 32 37 37 34 31 28 25 24 22 19 18 16 15 14 14 13 13 13 13 12
5 9 9 8 9 10 5 3 7 11 11 11 10 8 7 8 7 7 7 7 7 8 9 10 11 11 11 12 11 12 11 9 10 11 12 13 13 16 18 20 23 25 25 30 36 36 32 30 27 24 23 22 19 17 16 15 15 13 13 14 14 13 12
4 6 7 9 10 6 2 4 2 3 5 8 9 8 7 8 8 10 10 10 9 10 11 11 11 11 11 12 13 13 12 11 10 10 10 11 12 14 16 18 20 21 24 30 35 34 30 27 25 23 23 22 20 19 18 17 16 14 14 14 13 13 12
5 5 8 10 5 2 5 5 4 4 3 4 7 7 8 8 9 10 10 11 10 11 12 11 8 8 10 12 13 11 9 10 10 9 8 9 11 13 14 16 18 22 28 33 35 33 28 26 25 23 22 22 22 21 20 18 17 15 15 15 14 13 12
5 8 10 7 2 3 5 4 4 6 5 6 7 7 6 8 8 8 9 10 10 10 10 7 5 5 7 10 9 6 4 5 6 7 6 6 9 10 12 15 18 22 29 33 33 30 26 24 24 23 22 23 24 22 21 20 19 17 16 16 15 13 12
6 9 9 8 8 9 7 5 7 8 5 4 5 5 5 6 7 8 8 8 9 9 8 5 3 3 6 7 3 6 4 2 4 7 7 6 7 9 12 14 17 22 28 31 29 26 24 22 22 22 22 24 25 24 23 22 20 19 18 17 15 13 12
7 8 9 9 10 8 4 5 7 6 4 4 5 5 6 5 6 7 7 7 8 9 7 5 4 4 6 5 3 6 3 3 5 7 8 8 8 10 12 14 18 23 27 29 27 25 25 23 21 21 23 25 26 26 25 24 21 20 20 19 15 13 12
8 9 9 8 7 3 4 8 8 6 6 6 4 8 6 2 1 4 5 7 8 8 7 6 5 6 6 2 5 6 3 3 6 8 10 11 10 12 14 16 19 23 26 28 28 27 25 23 21 22 25 27 28 29 27 24 22 22 21 18 15 13 12
9 10 10 8 5 1 6 6 6 8 8 5 7 8 3 2 2 4 5 8 9 8 8 8 7 7 5 0 4 5 3 3 7 9 11 12 12 14 16 18 20 23 26 28 28 26 22 21 22 25 27 29 31 30 28 25 24 22 20 17 15 14 14
9 8 8 9 6 2 5 4 7 7 6 6 5 3 5 5 4 3 5 9 11 9 11 12 10 7 5 4 5 6 5 5 9 13 14 14 15 16 17 19 22 25 27 28 27 25 23 23 26 29 30 31 32 31 30 29 26 22 19 17 16 17 17
6 7 7 8 5 3 5 5 6 4 5 3 4 6 7 7 6 6 7 10 11 11 12 12 10 6 5 6 8 9 8 9 13 16 16 17 17 17 17 19 22 25 27 27 26 24 22 23 28 30 31 30 31 31 32 31 27 24 22 20 19 18 18
6 7 5 3 1 5 3 1 0 1 4 6 7 9 10 11 11 9 9 10 12 12 11 10 9 7 6 7 10 12 12 13 16 18 17 17 17 15 13 14 18 22 24 23 23 23 22 23 28 31 30 29 30 31 31 30 29 28 26 23 22 21 19
2 4 1 2 2 3 3 3 4 6 8 9 10 11 13 15 16 13 12 13 12 12 12 9 9 9 8 8 10 11 14 16 17 18 18 17 16 14 12 12 15 17 19 20 21 23 24 26 28 29 28 29 31 31 30 30 30 29 27 24 22 21 18
0 1 2 2 1 3 4 3 4 7 9 9 10 12 13 16 17 15 16 16 13 13 13 10 11 11 10 10 11 12 13 15 16 16 16 16 15 14 13 13 14 14 16 18 19 21 23 24 25 26 27 29 29 29 28 28 27 26 24 22 21 19 15
1 2 2 2 3 4 4 4 5 7 10 11 12 12 14 16 16 15 15 16 14 12 12 11 13 13 12 13 14 14 14 14 13 13 14 14 13 13 13 12 11 11 11 13 14 15 16 18 19 21 22 23 22 22 21 20 21 21 20 20 18 16 15
2 1 2 4 6 1 4 5 7 10 14 16 16 14 14 16 17 15 14 14 13 10 10 13 14 13 13 14 14 14 14 14 13 13 13 13 12 12 11 10 9 9 8 9 9 10 12 14 16 18 17 14 13 13 13 13 14 16 17 17 16 14 14
4 2 1 5 6 5 7 4 11 15 18 20 20 18 15 14 15 14 13 10 9 9 11 14 15 14 13 14 14 13 13 14 14 13 13 12 11 10 10 9 9 9 9 9 10 12 14 16 17 17 14 10 9 10 10 12 14 13 13 15 14 12 12
5 1 3 5 4 4 3 7 15 18 19 20 20 19 16 14 13 12 11 9 9 9 11 14 15 15 15 14 13 12 13 13 14 13 12 11 10 9 8 8 9 10 11 11 13 14 15 15 15 14 13 11 8 8 10 13 14 12 12 13 12 10 9
3 4 6 5 4 7 9 13 17 18 18 18 19 18 16 14 13 12 11 10 11 12 13 14 13 14 16 16 13 12 12 14 14 13 12 11 9 8 8 9 10 11 12 13 13 13 13 13 12 11 11 10 7 8 12 14 13 12 13 12 9 9 10
5 6 6 5 6 9 14 18 19 16 13 15 18 18 16 15 14 12 12 12 12 14 16 16 13 13 16 17 14 13 13 14 13 12 11 9 8 8 9 11 11 12 12 11 11 10 9 9 9 7 7 7 6 7 10 12 12 12 13 11 9 10 11
6 8 10 9 10 11 15 18 15 10 9 14 18 18 17 17 16 14 13 13 14 15 18 18 16 15 16 16 15 14 14 14 12 11 9 9 9 9 10 11 11 11 10 9 8 7 7 6 7 6 5 6 7 8 9 11 12 13 13 11 10 10 9
Wind_Direction
182 198 170 179 230 205 166 204 217 206 349 262 236 257 9 290 276 235 186 234 241 239 238 192 189 225 218 208 211 214 217 214 209 208 206 200 192 189 189 189 187 187 192 195 196 199 199 196 196 203 208 210 213 225 248 259 271 298 317 322 320 318 320
151 187 162 159 257 277 194 208 184 125 52 272 246 249 214 229 257 243 190 242 246 231 233 170 179 233 233 210 214 215 212 211 211 209 204 200 192 187 187 188 187 189 194 198 198 198 198 196 197 203 206 206 213 225 244 258 272 297 315 319 318 317 322
140 164 183 168 169 235 273 241 158 163 220 209 197 240 255 251 267 265 203 228 249 238 213 146 173 231 254 210 206 212 211 209 210 207 200 197 190 184 185 188 188 190 196 199 199 196 194 195 198 202 204 206 214 226 243 256 270 292 308 312 313 315 321
148 171 201 203 185 178 251 253 179 203 252 235 191 225 264 275 280 283 227 206 229 219 174 120 175 236 275 220 200 211 217 212 210 205 197 193 189 184 185 188 190 193 197 198 197 193 191 195 200 201 202 205 209 225 244 253 266 289 302 303 307 312 319
172 190 201 218 208 183 195 213 200 197 206 242 239 222 248 273 278 286 270 254 246 127 120 158 218 212 228 219 213 219 220 214 209 203 196 192 190 188 187 189 191 193 194 194 194 193 190 196 201 198 199 202 201 219 243 253 264 287 297 295 300 307 314
201 197 183 239 270 211 201 207 207 204 195 206 233 219 202 232 265 277 279 281 295 106 131 191 193 196 205 207 232 231 221 215 206 200 197 193 192 191 190 191 192 191 191 191 192 191 191 197 200 194 196 200 201 217 236 246 255 270 273 276 290 301 309
185 132 99 34 334 288 239 226 224 218 204 212 237 240 193 185 235 261 270 278 281 111 131 174 165 188 218 229 258 254 234 214 202 200 198 193 194 194 193 193 191 190 190 189 190 192 196 200 199 195 199 204 209 221 232 239 251 262 255 257 275 293 304
134 105 105 124 274 256 240 230 232 236 226 227 246 264 182 200 223 227 246 262 250 111 116 141 142 204 237 238 252 256 249 224 202 200 196 193 193 193 193 192 189 187 189 191 196 200 202 203 201 200 206 212 217 226 230 235 249 261 262 259 265 282 299
185 181 182 181 185 213 228 224 221 229 231 228 227 125 164 233 233 227 254 272 256 118 125 159 169 205 229 232 236 243 247 238 215 201 196 193 191 189 189 189 186 187 192 200 205 205 204 203 202 204 210 216 221 228 231 232 238 249 260 265 264 275 291
199 207 211 201 196 204 221 224 212 211 215 215 211 198 217 231 210 205 242 268 276 128 143 171 182 200 232 241 241 240 239 240 229 209 200 194 192 190 188 188 189 192 199 207 208 205 203 204 204 205 210 215 220 227 231 232 238 249 259 264 263 272 283
221 225 212 202 212 209 208 213 208 205 211 213 214 228 238 213 170 202 224 246 271 257 227 228 220 236 260 260 258 251 237 232 226 214 207 200 196 194 190 190 192 195 202 209 209 205 203 204 204 206 210 213 217 224 230 235 245 258 264 264 265 272 277
238 249 193 190 218 224 217 215 211 205 206 207 212 227 224 169 197 242 203 187 254 269 278 288 278 277 284 279 274 268 251 237 226 215 211 206 201 198 194 195 198 200 205 209 207 205 203 203 204 206 208 211 216 222 227 235 249 260 264 264 265 271 274
225 233 194 200 224 233 231 225 213 201 198 200 212 221 206 185 233 262 136 157 239 267 285 293 291 290 289 284 283 282 269 252 233 217 212 208 203 199 197 199 201 203 208 208 205 204 203 202 203 204 207 210 214 219 225 235 249 257 260 262 264 266 268
207 190 202 212 221 226 229 226 212 199 198 201 212 220 211 214 246 261 207 210 254 275 287 290 291 292 289 285 285 279 270 258 239 224 218 212 207 204 202 201 200 203 208 209 205 202 201 202 202 203 205 208 210 216 224 237 251 257 258 261 263 260 262
194 181 190 201 214 216 212 210 202 195 198 200 209 215 201 207 237 253 254 259 269 275 279 275 279 283 275 268 271 271 270 262 245 235 228 220 213 209 205 201 199 201 206 207 203 200 201 202 201 201 204 206 208 214 221 233 248 255 257 260 260 257 260
196 176 185 189 199 208 202 195 189 189 193 197 204 201 190 206 229 239 248 259 270 280 290 285 284 282 266 261 266 269 272 269 253 244 236 227 219 211 205 200 198 199 202 204 202 199 200 200 198 200 203 204 206 213 221 232 241 247 252 259 259 255 259
192 168 184 185 187 207 211 198 192 194 197 201 202 194 190 210 233 245 251 266 294 314 304 288 286 285 278 276 273 268 272 271 258 248 240 232 223 213 206 200 200 202 200 200 199 197 198 198 198 200 202 204 209 215 224 235 239 240 247 254 254 252 257
194 161 172 191 208 223 227 187 195 203 205 208 209 209 203 201 215 244 264 278 291 293 284 278 281 286 292 292 280 268 266 260 251 246 240 234 224 216 209 203 204 202 194 194 197 196 196 197 197 201 204 208 214 218 224 233 235 239 246 247 247 249 256
208 154 176 217 231 231 125 80 95 173 203 215 220 224 212 203 217 236 253 266 270 274 277 278 280 286 293 292 278 266 258 248 243 242 235 228 220 214 210 206 203 195 189 192 195 193 192 193 195 201 208 213 216 218 223 229 232 237 242 240 241 246 253
195 183 213 229 236 119 115 113 101 100 126 183 208 222 212 211 231 237 245 261 267 272 276 276 277 286 292 288 276 264 254 246 239 234 228 219 214 212 208 202 197 193 194 195 193 189 188 191 197 205 214 216 216 218 222 226 230 233 237 237 238 243 251
214 225 229 223 198 157 157 156 166 177 179 175 200 239 229 212 235 248 251 260 264 269 273 269 266 281 285 279 263 231 232 247 224 210 205 201 204 204 200 196 196 200 201 195 190 186 187 195 205 212 216 217 218 219 221 223 227 230 233 236 237 241 249
222 239 238 231 239 235 216 195 185 193 201 161 171 253 257 219 236 258 259 256 255 261 261 240 219 251 269 267 212 145 154 173 161 172 177 180 189 188 187 190 195 200 199 191 186 187 192 204 214 217 219 220 221 223 223 221 223 226 230 233 234 239 247
217 237 242 236 247 253 216 160 149 163 178 128 138 248 259 223 228 253 256 249 250 256 248 212 193 230 258 260 121 112 122 135 145 161 160 160 174 176 178 186 190 190 188 185 186 192 201 211 218 220 223 223 223 226 226 221 220 223 228 230 230 235 244
221 229 244 246 252 262 110 113 113 129 148 146 195 254 259 180 211 269 263 249 250 253 236 206 205 238 264 314 95 112 124 138 157 169 163 161 168 167 170 180 184 182 181 184 191 200 208 215 219 222 225 224 225 227 225 221 220 223 226 228 229 234 241
222 225 242 250 245 127 94 103 115 126 145 186 239 260 296 13 307 291 268 258 263 254 224 214 229 240 244 16 108 135 147 160 172 172 165 163 163 164 172 179 178 180 185 191 200 209 217 219 219 224 227 226 227 228 225 223 224 225 226 229 232 238 245
231 230 241 247 240 127 94 110 124 140 194 238 261 323 9 10 344 321 282 274 278 262 230 227 243 241 205 185 165 151 158 180 177 168 162 161 160 165 175 179 179 184 192 199 207 217 224 225 225 228 230 231 231 230 229 229 229 228 231 235 239 245 251
237 235 238 247 246 113 117 138 134 164 240 288 3 355 349 354 351 333 301 288 286 272 250 237 237 228 189 178 165 155 165 176 170 164 160 160 163 168 178 185 188 194 200 206 214 222 227 230 233 234 236 239 238 235 235 236 235 235 240 243 244 247 252
233 242 238 236 83 79 87 219 178 278 300 337 341 322 318 319 318 315 305 298 289 276 264 245 224 209 192 181 167 158 162 164 163 163 161 162 170 176 182 195 201 205 210 216 224 230 233 237 240 241 245 249 247 243 243 242 241 242 246 248 247 248 251
243 272 4 77 79 53 7 326 335 331 324 326 318 309 302 295 293 292 290 290 287 274 265 244 213 200 192 182 167 157 157 160 163 168 169 172 180 184 190 204 212 216 223 228 233 237 239 241 244 248 251 254 254 254 251 248 246 247 248 249 248 247 250
90 311 56 63 13 10 13 9 5 348 339 338 328 313 299 290 288 284 280 280 278 270 261 236 205 195 184 169 161 158 162 167 171 176 180 185 192 197 204 214 218 222 229 233 238 243 247 249 253 256 258 260 263 262 257 251 250 249 249 247 244 243 249
219 209 117 53 352 6 36 47 37 9 350 344 334 315 299 293 290 285 279 276 270 259 242 215 194 184 172 166 166 166 170 175 178 184 190 193 197 202 206 211 215 220 228 238 245 252 257 260 264 266 268 271 273 268 258 252 249 246 244 241 237 240 255
256 223 91 8 331 311 122 79 38 15 354 343 334 320 304 294 290 286 279 270 259 241 214 196 185 176 169 171 171 170 176 183 183 184 186 187 189 195 201 207 216 225 234 245 253 260 264 268 271 273 275 278 272 259 245 232 229 233 234 231 232 246 262
248 225 65 349 313 207 161 64 14 3 351 339 332 325 314 301 292 287 276 255 232 213 197 186 181 178 175 174 174 172 174 178 178 178 182 185 191 199 207 217 227 235 242 249 257 263 267 270 273 276 277 272 256 243 227 211 210 217 226 233 246 262 268
240 243 43 14 322 241 244 348 350 347 344 340 336 331 322 310 299 287 267 233 203 195 191 185 182 181 177 176 177 173 168 172 179 185 188 193 200 208 217 226 234 241 248 255 259 262 266 268 271 274 276 271 256 236 223 217 216 223 239 251 260 263 260
302 21 37 31 338 303 309 326 332 333 336 340 342 339 329 315 304 289 265 232 203 190 188 186 185 188 189 187 181 173 175 183 190 193 195 201 209 217 226 235 241 247 251 255 257 258 261 264 266 268 272 272 259 231 226 227 227 237 252 259 258 253 256
321 346 2 359 329 309 305 312 319 323 332 340 341 339 333 321 307 291 271 249 227 208 197 191 186 191 197 193 181 177 185 191 194 199 205 211 218 224 232 238 242 246 247 249 253 255 257 261 264 265 267 268 260 242 239 241 241 249 257 258 255 258 262
304 314 325 321 311 303 300 304 308 313 329 337 335 331 329 323 309 291 273 257 243 224 208 197 191 188 189 186 181 184 193 195 198 203 207 212 220 227 233 238 240 243 246 248 253 258 262 265 266 263 260 261 258 251 250 253 254 257 259 256 251 254 257